,,Stat5,,Stat1,,Stat2,,Stat3,,Stat4,,Wind1,,Wind1,
time,status,PA1M_AVG,status,PR1M_SUM,status,RH1M_AVG,status,SR1M_AVG,status,TA1M_AVG,status,W1dAve1m,status,W1sAve1m,
2000-08-17, 00:00:00,VALID,919.236,VALID,0,VALID,97.6834,VALID,-0.0679233,VALID,18.4688,VALID,91,VALID,0.23763,
2000-08-17, 00:01:00,VALID,919.236,VALID,0,VALID,97.7228,VALID,-0.0679233,VALID,18.4651,VALID,91,VALID,0.0705236,
2000-08-17, 00:02:00,VALID,919.224,VALID,0,VALID,97.7533,VALID,-0.0849042,VALID,18.4879,VALID,91,VALID,0,
2000-08-17, 00:03:00,VALID,919.221,VALID,0,VALID,97.7241,VALID,-0.0339617,VALID,18.478,VALID,93,VALID,0.0427734,
2000-08-17, 00:04:00,VALID,919.21,VALID,0,VALID,97.7419,VALID,-0.0849042,VALID,18.4914,VALID,20,VALID,0.150506,
2000-08-17, 00:05:00,VALID,919.202,VALID,0,VALID,97.8614,VALID,-0.0509425,VALID,18.5039,VALID,352,VALID,0.0166807,
2000-08-17, 00:06:00,VALID,919.19,VALID,0,VALID,97.9097,VALID,-0.0509425,VALID,18.5105,VALID,242,VALID,0,
2000-08-17, 00:07:00,VALID,919.169,VALID,0,VALID,97.9479,VALID,-0.0339617,VALID,18.5237,VALID,242,VALID,0,
2000-08-17, 00:08:00,VALID,919.151,VALID,0,VALID,97.8423,VALID,-0.0679233,VALID,18.5036,VALID,149,VALID,0,
2000-08-17, 00:09:00,VALID,919.148,VALID,0,VALID,97.7711,VALID,-0.0509425,VALID,18.5039,VALID,104,VALID,0.163616,
2000-08-17, 00:10:00,VALID,919.125,VALID,0,VALID,97.733,VALID,-0.0339617,VALID,18.4972,VALID,98,VALID,0,
2000-08-17, 00:11:00,VALID,919.112,VALID,0,VALID,97.6554,VALID,-0.0169808,VALID,18.4815,VALID,95,VALID,0,
2000-08-17, 00:12:00,VALID,919.104,VALID,0,VALID,97.663,VALID,-0.0339617,VALID,18.4646,VALID,95,VALID,0,
2000-08-17, 00:13:00,VALID,919.099,VALID,0,VALID,97.7152,VALID,-0.0679233,VALID,18.4748,VALID,95,VALID,0,
2000-08-17, 00:14:00,VALID,919.086,VALID,0,VALID,97.7101,VALID,-0.0169808,VALID,18.4688,VALID,99,VALID,0,
2000-08-17, 00:15:00,VALID,919.06,VALID,0,VALID,97.7597,VALID,-0.0679233,VALID,18.4455,VALID,97,VALID,0,
2000-08-17, 00:16:00,VALID,919.062,VALID,0,VALID,97.8258,VALID,-0.0169808,VALID,18.4522,VALID,95,VALID,0,
2000-08-17, 00:17:00,VALID,919.051,VALID,0,VALID,97.7622,VALID,-0.0169808,VALID,18.4591,VALID,95,VALID,0,
2000-08-17, 00:18:00,VALID,919.042,VALID,0,VALID,97.6122,VALID,-0.0169808,VALID,18.4166,VALID,92,VALID,0,
2000-08-17, 00:19:00,VALID,919.041,VALID,0,VALID,97.6046,VALID,-0.0339617,VALID,18.4206,VALID,87,VALID,0.933066,
2000-08-17, 00:20:00,VALID,919.03,VALID,0,VALID,97.7037,VALID,0,VALID,18.4097,VALID,79,VALID,0.895312,
2000-08-17, 00:21:00,VALID,919.014,VALID,0,VALID,97.7648,VALID,-0.0509425,VALID,18.4395,VALID,83,VALID,1.11498,
2000-08-17, 00:22:00,VALID,919.001,VALID,0,VALID,97.5817,VALID,-0.0169808,VALID,18.4039,VALID,88,VALID,0.857525,
2000-08-17, 00:23:00,VALID,918.996,VALID,0,VALID,97.5804,VALID,-0.0679233,VALID,18.4007,VALID,84,VALID,0.775841,
2000-08-17, 00:24:00,VALID,918.994,VALID,0,VALID,97.5244,VALID,-0.0509425,VALID,18.3876,VALID,73,VALID,0.837377,
2000-08-17, 00:25:00,VALID,918.977,VALID,0,VALID,97.5397,VALID,-0.0339617,VALID,18.401,VALID,82,VALID,0.869391,
2000-08-17, 00:26:00,VALID,918.977,VALID,0,VALID,97.4418,VALID,-0.0509425,VALID,18.3876,VALID,89,VALID,0.731445,
2000-08-17, 00:27:00,VALID,918.969,VALID,0,VALID,97.3464,VALID,-0.0679233,VALID,18.3749,VALID,87,VALID,1.03632,
2000-08-17, 00:28:00,VALID,918.958,VALID,0,VALID,97.1976,VALID,-0.0339617,VALID,18.3781,VALID,88,VALID,0.977539,
2000-08-17, 00:29:00,VALID,918.936,VALID,0,VALID,97.0171,VALID,-0.0849042,VALID,18.3525,VALID,77,VALID,1.0607,
2000-08-17, 00:30:00,VALID,918.918,VALID,0,VALID,97.1239,VALID,-0.0679233,VALID,18.3488,VALID,70,VALID,0.857319,
2000-08-17, 00:31:00,VALID,918.909,VALID,0,VALID,97.1786,VALID,-0.0509425,VALID,18.3423,VALID,76,VALID,0.833734,
2000-08-17, 00:32:00,VALID,918.905,VALID,0,VALID,97.1722,VALID,-0.0849042,VALID,18.352,VALID,85,VALID,0.701686,
2000-08-17, 00:33:00,VALID,918.882,VALID,0,VALID,97.1048,VALID,-0.0169808,VALID,18.3423,VALID,86,VALID,0.732572,
2000-08-17, 00:34:00,VALID,918.873,VALID,0,VALID,97.0756,VALID,-0.0509425,VALID,18.3294,VALID,72,VALID,0.598047,
2000-08-17, 00:35:00,VALID,918.864,VALID,0,VALID,97.0412,VALID,-0.0509425,VALID,18.3066,VALID,79,VALID,0.664696,
2000-08-17, 00:36:00,VALID,918.857,VALID,0,VALID,97.1608,VALID,-0.0509425,VALID,18.307,VALID,93,VALID,0.730469,
2000-08-17, 00:37:00,VALID,918.854,VALID,0,VALID,97.1633,VALID,-0.0169808,VALID,18.307,VALID,51,VALID,0.377003,
2000-08-17, 00:38:00,VALID,918.868,VALID,0,VALID,97.3401,VALID,-0.0339617,VALID,18.3264,VALID,357,VALID,0.172286,
2000-08-17, 00:39:00,VALID,918.865,VALID,0,VALID,97.3172,VALID,0,VALID,18.3165,VALID,6,VALID,0,
2000-08-17, 00:40:00,VALID,918.866,VALID,0,VALID,97.3884,VALID,-0.0339617,VALID,18.3363,VALID,357,VALID,0,
2000-08-17, 00:41:00,VALID,918.858,VALID,0,VALID,97.5194,VALID,-0.0169808,VALID,18.3493,VALID,287,VALID,0,
2000-08-17, 00:42:00,VALID,918.845,VALID,0,VALID,97.6084,VALID,-0.0339617,VALID,18.3361,VALID,287,VALID,0,
2000-08-17, 00:43:00,VALID,918.84,VALID,0,VALID,97.6821,VALID,0,VALID,18.3453,VALID,287,VALID,0,
2000-08-17, 00:44:00,VALID,918.83,VALID,0,VALID,97.6783,VALID,-0.0169808,VALID,18.3297,VALID,287,VALID,0,
2000-08-17, 00:45:00,VALID,918.805,VALID,0,VALID,97.6643,VALID,-0.0169808,VALID,18.317,VALID,287,VALID,0,
2000-08-17, 00:46:00,VALID,918.79,VALID,0,VALID,97.6592,VALID,-0.0509425,VALID,18.311,VALID,47,VALID,0.280428,
2000-08-17, 00:47:00,VALID,918.775,VALID,0,VALID,97.4723,VALID,-0.0339617,VALID,18.2717,VALID,53,VALID,0.260417,
2000-08-17, 00:48:00,VALID,918.747,VALID,0,VALID,97.4011,VALID,-0.0509425,VALID,18.2653,VALID,53,VALID,0.223479,
2000-08-17, 00:49:00,VALID,918.737,VALID,0,VALID,97.0527,VALID,-0.0339617,VALID,18.2138,VALID,66,VALID,0.0947516,
2000-08-17, 00:50:00,VALID,918.729,VALID,0,VALID,96.7513,VALID,-0.0169808,VALID,18.152,VALID,73,VALID,0,
2000-08-17, 00:51:00,VALID,918.729,VALID,0,VALID,96.7856,VALID,-0.0339617,VALID,18.0934,VALID,81,VALID,0,
2000-08-17, 00:52:00,VALID,918.718,VALID,0,VALID,96.9611,VALID,-0.0339617,VALID,18.0646,VALID,87,VALID,0,
2000-08-17, 00:53:00,VALID,918.703,VALID,0,VALID,96.9382,VALID,0,VALID,18.0161,VALID,87,VALID,0,
2000-08-17, 00:54:00,VALID,918.696,VALID,0,VALID,97.087,VALID,-0.0339617,VALID,17.9972,VALID,87,VALID,0,
2000-08-17, 00:55:00,VALID,918.698,VALID,0,VALID,97.2409,VALID,0,VALID,17.9776,VALID,87,VALID,0,
2000-08-17, 00:56:00,VALID,918.686,VALID,0,VALID,97.5372,VALID,0,VALID,17.9938,VALID,87,VALID,0,
2000-08-17, 00:57:00,VALID,918.666,VALID,0,VALID,97.3566,VALID,0,VALID,17.9548,VALID,87,VALID,0,
2000-08-17, 00:58:00,VALID,918.654,VALID,0,VALID,97.0463,VALID,0,VALID,17.907,VALID,87,VALID,0,
2000-08-17, 00:59:00,VALID,918.64,VALID,0,VALID,96.9281,VALID,0,VALID,17.8549,VALID,87,VALID,0,
2000-08-17, 01:00:00,VALID,918.629,VALID,0,VALID,97.115,VALID,0,VALID,17.8157,VALID,86,VALID,0,
2000-08-17, 01:01:00,VALID,918.615,VALID,0,VALID,97.3312,VALID,0,VALID,17.8424,VALID,81,VALID,0,
2000-08-17, 01:02:00,VALID,918.613,VALID,0,VALID,97.3668,VALID,-0.0169808,VALID,17.8161,VALID,81,VALID,0,
2000-08-17, 01:03:00,VALID,918.593,VALID,0,VALID,97.5219,VALID,-0.0169808,VALID,17.8256,VALID,81,VALID,0,
2000-08-17, 01:04:00,VALID,918.595,VALID,0,VALID,97.6338,VALID,0,VALID,17.8454,VALID,81,VALID,0,
2000-08-17, 01:05:00,VALID,918.584,VALID,0,VALID,97.7343,VALID,0,VALID,17.8519,VALID,78,VALID,0,
2000-08-17, 01:06:00,VALID,918.565,VALID,0,VALID,97.8665,VALID,0,VALID,17.8579,VALID,78,VALID,0,
2000-08-17, 01:07:00,VALID,918.55,VALID,0,VALID,97.8614,VALID,-0.0339617,VALID,17.8459,VALID,76,VALID,0,
2000-08-17, 01:08:00,VALID,918.556,VALID,0,VALID,98.1742,VALID,-0.0169808,VALID,17.9102,VALID,75,VALID,0,
2000-08-17, 01:09:00,VALID,918.53,VALID,0,VALID,98.0903,VALID,0,VALID,17.8775,VALID,75,VALID,0,
2000-08-17, 01:10:00,VALID,918.522,VALID,0,VALID,97.8919,VALID,0.0169808,VALID,17.8,VALID,75,VALID,0,
2000-08-17, 01:11:00,VALID,918.492,VALID,0,VALID,97.8067,VALID,0,VALID,17.7582,VALID,75,VALID,0,
2000-08-17, 01:12:00,VALID,918.471,VALID,0,VALID,97.6834,VALID,0.0169808,VALID,17.7195,VALID,75,VALID,0,
2000-08-17, 01:13:00,VALID,918.435,VALID,0,VALID,98.0941,VALID,-0.0169808,VALID,17.7684,VALID,77,VALID,0,
2000-08-17, 01:14:00,VALID,918.398,VALID,0,VALID,98.1132,VALID,-0.0169808,VALID,17.7485,VALID,73,VALID,0,
2000-08-17, 01:15:00,VALID,918.365,VALID,0,VALID,98.4133,VALID,-0.0339617,VALID,17.8293,VALID,344,VALID,0,
2000-08-17, 01:16:00,VALID,918.337,VALID,0,VALID,98.6816,VALID,0,VALID,17.8971,VALID,348,VALID,0,
2000-08-17, 01:17:00,VALID,918.298,VALID,0,VALID,98.8062,VALID,0,VALID,17.9555,VALID,347,VALID,0,
2000-08-17, 01:18:00,VALID,918.283,VALID,0,VALID,98.9016,VALID,0,VALID,17.9944,VALID,348,VALID,0,
2000-08-17, 01:19:00,VALID,918.262,VALID,0,VALID,98.8736,VALID,0,VALID,17.9649,VALID,347,VALID,0,
2000-08-17, 01:20:00,VALID,918.241,VALID,0,VALID,98.8316,VALID,-0.0169808,VALID,17.9262,VALID,347,VALID,0,
2000-08-17, 01:21:00,VALID,918.221,VALID,0,VALID,98.8393,VALID,0,VALID,17.9165,VALID,348,VALID,0,
2000-08-17, 01:22:00,VALID,918.208,VALID,0,VALID,98.8062,VALID,-0.0169808,VALID,17.8844,VALID,347,VALID,0,
2000-08-17, 01:23:00,VALID,918.181,VALID,0,VALID,98.7897,VALID,-0.0169808,VALID,17.8715,VALID,347,VALID,0,
2000-08-17, 01:24:00,VALID,918.165,VALID,0,VALID,98.8329,VALID,-0.0169808,VALID,17.8745,VALID,347,VALID,0,
2000-08-17, 01:25:00,VALID,918.154,VALID,0,VALID,98.9118,VALID,0,VALID,17.8945,VALID,348,VALID,0,
2000-08-17, 01:26:00,VALID,918.156,VALID,0,VALID,98.9168,VALID,0,VALID,17.8973,VALID,347,VALID,0,
2000-08-17, 01:27:00,VALID,918.156,VALID,0,VALID,98.9817,VALID,0,VALID,17.916,VALID,325,VALID,0,
2000-08-17, 01:28:00,VALID,918.153,VALID,0,VALID,99.0186,VALID,0,VALID,17.9455,VALID,324,VALID,0,
2000-08-17, 01:29:00,VALID,918.133,VALID,0,VALID,98.997,VALID,-0.0169808,VALID,17.9365,VALID,324,VALID,0,
2000-08-17, 01:30:00,VALID,918.138,VALID,0,VALID,99.0173,VALID,-0.0169808,VALID,17.9238,VALID,324,VALID,0,
2000-08-17, 01:31:00,VALID,918.132,VALID,0,VALID,98.9486,VALID,0,VALID,17.8687,VALID,324,VALID,0,
2000-08-17, 01:32:00,VALID,918.126,VALID,0,VALID,98.8978,VALID,0,VALID,17.8267,VALID,324,VALID,0,
2000-08-17, 01:33:00,VALID,918.098,VALID,0,VALID,98.8812,VALID,0,VALID,17.7808,VALID,324,VALID,0,
2000-08-17, 01:34:01,VALID,918.087,VALID,0,VALID,98.4642,VALID,0,VALID,17.6196,VALID,324,VALID,0,
2000-08-17, 01:35:00,VALID,918.07,VALID,0,VALID,98.3332,VALID,0,VALID,17.5419,VALID,324,VALID,0,
2000-08-17, 01:36:00,VALID,918.062,VALID,0,VALID,98.4756,VALID,-0.0339617,VALID,17.5522,VALID,324,VALID,0,
2000-08-17, 01:37:00,VALID,918.051,VALID,0,VALID,98.3764,VALID,-0.0169808,VALID,17.4846,VALID,329,VALID,0,
2000-08-17, 01:38:00,VALID,918.067,VALID,0,VALID,98.6218,VALID,0,VALID,17.5098,VALID,18,VALID,0,
2000-08-17, 01:39:00,VALID,918.073,VALID,0,VALID,98.6892,VALID,-0.0169808,VALID,17.513,VALID,45,VALID,0,
2000-08-17, 01:40:00,VALID,918.071,VALID,0,VALID,98.8533,VALID,-0.0169808,VALID,17.5647,VALID,64,VALID,0,
2000-08-17, 01:41:00,VALID,918.081,VALID,0,VALID,98.9664,VALID,-0.0169808,VALID,17.6075,VALID,82,VALID,0,
2000-08-17, 01:42:01,VALID,918.084,VALID,0,VALID,98.9881,VALID,-0.0339617,VALID,17.617,VALID,88,VALID,0,
2000-08-17, 01:43:00,VALID,918.069,VALID,0,VALID,99.0046,VALID,-0.0169808,VALID,17.6067,VALID,88,VALID,0,
2000-08-17, 01:44:00,VALID,918.061,VALID,0,VALID,99.0008,VALID,0,VALID,17.6166,VALID,88,VALID,0,
2000-08-17, 01:45:00,VALID,918.05,VALID,0,VALID,98.9626,VALID,0,VALID,17.6168,VALID,86,VALID,0,
2000-08-17, 01:46:00,VALID,918.039,VALID,0,VALID,98.9334,VALID,0.0169808,VALID,17.6235,VALID,86,VALID,0,
2000-08-17, 01:47:00,VALID,918.035,VALID,0,VALID,98.9283,VALID,0,VALID,17.6521,VALID,86,VALID,0,
2000-08-17, 01:48:00,VALID,918.022,VALID,0,VALID,98.8444,VALID,-0.0339617,VALID,17.6558,VALID,86,VALID,0,
2000-08-17, 01:49:00,VALID,918.011,VALID,0,VALID,98.735,VALID,-0.0339617,VALID,17.6329,VALID,86,VALID,0,
2000-08-17, 01:50:01,VALID,918.006,VALID,0,VALID,98.6244,VALID,-0.0509425,VALID,17.6168,VALID,349,VALID,0,
2000-08-17, 01:51:00,VALID,917.996,VALID,0,VALID,98.6485,VALID,-0.0509425,VALID,17.6689,VALID,314,VALID,0,
2000-08-17, 01:52:00,VALID,918.001,VALID,0,VALID,98.5417,VALID,0,VALID,17.6915,VALID,357,VALID,0,
2000-08-17, 01:53:00,VALID,917.992,VALID,0,VALID,97.9924,VALID,-0.0169808,VALID,17.6329,VALID,83,VALID,0,
2000-08-17, 01:54:00,VALID,917.982,VALID,0,VALID,97.8843,VALID,0,VALID,17.6359,VALID,74,VALID,0,
2000-08-17, 01:55:00,VALID,917.959,VALID,0,VALID,97.5359,VALID,0,VALID,17.6133,VALID,97,VALID,0,
2000-08-17, 01:56:00,VALID,917.952,VALID,0,VALID,97.176,VALID,0,VALID,17.5386,VALID,97,VALID,0,
2000-08-17, 01:57:00,VALID,917.967,VALID,0,VALID,97.1875,VALID,0,VALID,17.5132,VALID,97,VALID,0,
2000-08-17, 01:58:01,VALID,917.959,VALID,0,VALID,97.4977,VALID,-0.0339617,VALID,17.516,VALID,97,VALID,0,
2000-08-17, 01:59:00,VALID,917.926,VALID,0,VALID,97.7432,VALID,-0.0339617,VALID,17.5425,VALID,97,VALID,0,
2000-08-17, 02:00:00,VALID,917.903,VALID,0,VALID,97.6033,VALID,-0.0339617,VALID,17.5107,VALID,97,VALID,0,
2000-08-17, 02:01:00,VALID,917.881,VALID,0,VALID,97.5092,VALID,-0.0509425,VALID,17.4814,VALID,97,VALID,0,
2000-08-17, 02:02:01,VALID,917.858,VALID,0,VALID,97.7279,VALID,-0.0339617,VALID,17.4977,VALID,97,VALID,0,
2000-08-17, 02:03:00,VALID,917.844,VALID,0,VALID,97.6719,VALID,-0.0509425,VALID,17.4977,VALID,97,VALID,0,
2000-08-17, 02:04:00,VALID,917.818,VALID,0,VALID,97.6491,VALID,-0.0849042,VALID,17.4945,VALID,97,VALID,0,
2000-08-17, 02:05:00,VALID,917.803,VALID,0,VALID,97.3617,VALID,-0.0339617,VALID,17.4592,VALID,97,VALID,0,
2000-08-17, 02:06:01,VALID,917.793,VALID,0,VALID,97.2015,VALID,-0.0849042,VALID,17.4235,VALID,97,VALID,0,
2000-08-17, 02:07:00,VALID,917.781,VALID,0,VALID,97.2065,VALID,-0.0679233,VALID,17.3972,VALID,97,VALID,0,
2000-08-17, 02:08:00,VALID,917.771,VALID,0,VALID,97.1252,VALID,-0.0169808,VALID,17.3582,VALID,97,VALID,0,
2000-08-17, 02:09:00,VALID,917.773,VALID,0,VALID,96.839,VALID,-0.0169808,VALID,17.3001,VALID,97,VALID,0,
2000-08-17, 02:10:00,VALID,917.763,VALID,0,VALID,96.6852,VALID,0,VALID,17.268,VALID,97,VALID,0,
2000-08-17, 02:11:00,VALID,917.756,VALID,0,VALID,96.4309,VALID,-0.0339617,VALID,17.2168,VALID,111,VALID,0,
2000-08-17, 02:12:00,VALID,917.756,VALID,0,VALID,96.2757,VALID,0,VALID,17.1619,VALID,120,VALID,0,
2000-08-17, 02:13:00,VALID,917.729,VALID,0,VALID,96.2338,VALID,0,VALID,17.1451,VALID,116,VALID,0,
2000-08-17, 02:14:01,VALID,917.728,VALID,0,VALID,96.1384,VALID,0.0679233,VALID,17.1507,VALID,110,VALID,0,
2000-08-17, 02:15:00,VALID,917.72,VALID,0,VALID,95.9044,VALID,0.0679233,VALID,17.1737,VALID,110,VALID,0,
2000-08-17, 02:16:00,VALID,917.701,VALID,0,VALID,95.7785,VALID,0.0849042,VALID,17.1802,VALID,111,VALID,0,
2000-08-17, 02:17:00,VALID,917.681,VALID,0,VALID,95.706,VALID,0.0509425,VALID,17.203,VALID,111,VALID,0,
2000-08-17, 02:18:00,VALID,917.688,VALID,0,VALID,95.2432,VALID,0.0509425,VALID,17.1966,VALID,111,VALID,0,
2000-08-17, 02:19:00,VALID,917.675,VALID,0,VALID,95.3335,VALID,0.0339617,VALID,17.1933,VALID,111,VALID,0,
2000-08-17, 02:20:00,VALID,917.657,VALID,0,VALID,95.2826,VALID,0.0679233,VALID,17.1836,VALID,119,VALID,0,
2000-08-17, 02:21:00,VALID,917.645,VALID,0,VALID,95.261,VALID,0.0679233,VALID,17.1569,VALID,122,VALID,0,
2000-08-17, 02:22:01,VALID,917.63,VALID,0,VALID,95.2139,VALID,0.0339617,VALID,17.1578,VALID,122,VALID,0,
2000-08-17, 02:23:00,VALID,917.61,VALID,0,VALID,95.205,VALID,0.0509425,VALID,17.1259,VALID,120,VALID,0,
2000-08-17, 02:24:00,VALID,917.605,VALID,0,VALID,94.7562,VALID,0.0679233,VALID,17.0577,VALID,114,VALID,0,
2000-08-17, 02:25:00,VALID,917.58,VALID,0,VALID,95.1669,VALID,0.0849042,VALID,16.9964,VALID,107,VALID,0,
2000-08-17, 02:26:01,VALID,917.574,VALID,0,VALID,95.3945,VALID,0.0849042,VALID,16.9445,VALID,106,VALID,0,
2000-08-17, 02:27:00,VALID,917.554,VALID,0,VALID,95.5535,VALID,0.0339617,VALID,16.893,VALID,98,VALID,0,
2000-08-17, 02:28:00,VALID,917.539,VALID,0,VALID,95.5598,VALID,-0.0339617,VALID,16.881,VALID,84,VALID,0,
2000-08-17, 02:29:00,VALID,917.509,VALID,0,VALID,95.5,VALID,-0.101885,VALID,16.904,VALID,108,VALID,0,
2000-08-17, 02:30:01,VALID,917.485,VALID,0,VALID,95.5204,VALID,-0.0679233,VALID,16.9102,VALID,100,VALID,0,
2000-08-17, 02:31:00,VALID,917.47,VALID,0,VALID,95.5,VALID,-0.0849042,VALID,16.9072,VALID,100,VALID,0,
2000-08-17, 02:32:00,VALID,917.463,VALID,0,VALID,95.3767,VALID,-0.0339617,VALID,16.9111,VALID,100,VALID,0,
2000-08-17, 02:33:00,VALID,917.453,VALID,0,VALID,95.1351,VALID,-0.0679233,VALID,16.8818,VALID,100,VALID,0,
2000-08-17, 02:34:00,VALID,917.444,VALID,0,VALID,94.8197,VALID,-0.0339617,VALID,16.8721,VALID,101,VALID,0,
2000-08-17, 02:35:00,VALID,917.438,VALID,0,VALID,94.6481,VALID,-0.0509425,VALID,16.8618,VALID,120,VALID,0,
2000-08-17, 02:36:00,VALID,917.43,VALID,0,VALID,94.5654,VALID,-0.0679233,VALID,16.8431,VALID,120,VALID,0,
2000-08-17, 02:37:00,VALID,917.434,VALID,0,VALID,94.5158,VALID,-0.0849042,VALID,16.837,VALID,120,VALID,0,
2000-08-17, 02:38:01,VALID,917.442,VALID,0,VALID,94.161,VALID,-0.0849042,VALID,16.7949,VALID,120,VALID,0,
2000-08-17, 02:39:00,VALID,917.447,VALID,0,VALID,94.4205,VALID,-0.0679233,VALID,16.7398,VALID,120,VALID,0,
2000-08-17, 02:40:00,VALID,917.456,VALID,0,VALID,94.6697,VALID,-0.0849042,VALID,16.7139,VALID,120,VALID,0,
2000-08-17, 02:41:00,VALID,917.471,VALID,0,VALID,94.8147,VALID,-0.101885,VALID,16.6724,VALID,120,VALID,0,
2000-08-17, 02:42:00,VALID,917.467,VALID,0,VALID,94.9736,VALID,-0.101885,VALID,16.6597,VALID,120,VALID,0,
2000-08-17, 02:43:00,VALID,917.453,VALID,0,VALID,94.8528,VALID,-0.0339617,VALID,16.636,VALID,80,VALID,0,
2000-08-17, 02:44:00,VALID,917.453,VALID,0,VALID,94.4446,VALID,0,VALID,16.7036,VALID,37,VALID,0,
2000-08-17, 02:45:00,VALID,917.436,VALID,0,VALID,93.702,VALID,-0.0169808,VALID,16.6745,VALID,37,VALID,0,
2000-08-17, 02:46:01,VALID,917.438,VALID,0,VALID,94.3289,VALID,0,VALID,16.5839,VALID,36,VALID,0,
2000-08-17, 02:47:00,VALID,917.432,VALID,0,VALID,94.7409,VALID,0,VALID,16.5613,VALID,35,VALID,0,
2000-08-17, 02:48:00,VALID,917.434,VALID,0,VALID,95.219,VALID,0,VALID,16.5745,VALID,35,VALID,0,
2000-08-17, 02:49:00,VALID,917.413,VALID,0,VALID,95.3754,VALID,0.0169808,VALID,16.568,VALID,35,VALID,0,
2000-08-17, 02:50:01,VALID,917.409,VALID,0,VALID,95.879,VALID,0,VALID,16.61,VALID,57,VALID,0,
2000-08-17, 02:51:00,VALID,917.391,VALID,0,VALID,94.8274,VALID,0,VALID,16.5971,VALID,103,VALID,0,
2000-08-17, 02:52:00,VALID,917.378,VALID,0,VALID,94.8592,VALID,0,VALID,16.5688,VALID,103,VALID,0,
2000-08-17, 02:53:00,VALID,917.357,VALID,0,VALID,95.102,VALID,0,VALID,16.562,VALID,103,VALID,0,
2000-08-17, 02:54:01,VALID,917.335,VALID,0,VALID,95.1885,VALID,0,VALID,16.5357,VALID,103,VALID,0,
2000-08-17, 02:55:01,VALID,917.316,VALID,0,VALID,95.1275,VALID,-0.0339617,VALID,16.5198,VALID,90,VALID,0,
2000-08-17, 02:56:00,VALID,917.292,VALID,0,VALID,94.9494,VALID,0,VALID,16.5428,VALID,47,VALID,0,
2000-08-17, 02:57:01,VALID,917.287,VALID,0,VALID,95.8319,VALID,0,VALID,16.6067,VALID,318,VALID,0,
2000-08-17, 02:58:00,VALID,917.266,VALID,0,VALID,96.6712,VALID,0,VALID,16.707,VALID,313,VALID,0,
2000-08-17, 02:59:00,VALID,917.257,VALID,0,VALID,95.3869,VALID,0.0169808,VALID,16.6683,VALID,289,VALID,0,
2000-08-17, 03:00:00,VALID,917.238,VALID,0,VALID,94.601,VALID,0,VALID,16.5906,VALID,126,VALID,0,
2000-08-17, 03:01:00,VALID,917.234,VALID,0,VALID,94.821,VALID,-0.0169808,VALID,16.5555,VALID,124,VALID,0,
2000-08-17, 03:02:01,VALID,917.23,VALID,0,VALID,94.9151,VALID,0.0169808,VALID,16.5236,VALID,124,VALID,0,
2000-08-17, 03:03:01,VALID,917.229,VALID,0,VALID,94.9978,VALID,-0.0169808,VALID,16.5075,VALID,124,VALID,0,
2000-08-17, 03:04:00,VALID,917.233,VALID,0,VALID,95.0499,VALID,0.0169808,VALID,16.4909,VALID,124,VALID,0,
2000-08-17, 03:05:01,VALID,917.204,VALID,0,VALID,94.7193,VALID,0.0169808,VALID,16.4778,VALID,124,VALID,0,
2000-08-17, 03:06:00,VALID,917.198,VALID,0,VALID,93.852,VALID,0.0169808,VALID,16.4645,VALID,124,VALID,0,
2000-08-17, 03:07:00,VALID,917.172,VALID,0,VALID,94.0479,VALID,0,VALID,16.4104,VALID,124,VALID,0,
2000-08-17, 03:08:00,VALID,917.166,VALID,0,VALID,94.3988,VALID,-0.0169808,VALID,16.3777,VALID,124,VALID,0,
2000-08-17, 03:09:00,VALID,917.152,VALID,0,VALID,94.4065,VALID,0,VALID,16.3713,VALID,124,VALID,0,
2000-08-17, 03:10:01,VALID,917.14,VALID,0,VALID,94.0479,VALID,-0.0169808,VALID,16.362,VALID,124,VALID,0,
2000-08-17, 03:11:01,VALID,917.13,VALID,0,VALID,93.8164,VALID,0,VALID,16.3551,VALID,124,VALID,0,
2000-08-17, 03:12:00,VALID,917.13,VALID,0,VALID,93.7211,VALID,0,VALID,16.3588,VALID,124,VALID,0,
2000-08-17, 03:13:01,VALID,917.135,VALID,0,VALID,93.454,VALID,0,VALID,16.3523,VALID,129,VALID,0,
2000-08-17, 03:14:01,VALID,917.118,VALID,0,VALID,93.332,VALID,0,VALID,16.3463,VALID,142,VALID,0,
2000-08-17, 03:15:00,VALID,917.107,VALID,0,VALID,93.4413,VALID,-0.0169808,VALID,16.3366,VALID,142,VALID,0,
2000-08-17, 03:16:01,VALID,917.113,VALID,0,VALID,93.0166,VALID,0,VALID,16.3105,VALID,142,VALID,0,
2000-08-17, 03:17:01,VALID,917.098,VALID,0,VALID,92.817,VALID,-0.0169808,VALID,16.3204,VALID,142,VALID,0,
2000-08-17, 03:18:01,VALID,917.088,VALID,0,VALID,92.9314,VALID,0,VALID,16.3132,VALID,142,VALID,0,
2000-08-17, 03:19:01,VALID,917.081,VALID,0,VALID,93.3065,VALID,0,VALID,16.3041,VALID,142,VALID,0,
2000-08-17, 03:20:01,VALID,917.079,VALID,0,VALID,93.8953,VALID,0,VALID,16.2785,VALID,142,VALID,0,
2000-08-17, 03:21:01,VALID,917.078,VALID,0,VALID,94.4662,VALID,0,VALID,16.2423,VALID,162,VALID,0,
2000-08-17, 03:22:01,VALID,917.051,VALID,0,VALID,94.54,VALID,-0.0169808,VALID,16.2072,VALID,168,VALID,0,
2000-08-17, 03:23:01,VALID,917.029,VALID,0,VALID,94.1204,VALID,0,VALID,16.1913,VALID,166,VALID,0,
2000-08-17, 03:24:01,VALID,917.007,VALID,0,VALID,94.2844,VALID,0,VALID,16.1909,VALID,165,VALID,0,
2000-08-17, 03:25:01,VALID,916.996,VALID,0,VALID,93.997,VALID,-0.0339617,VALID,16.1786,VALID,165,VALID,0,
2000-08-17, 03:26:01,VALID,916.974,VALID,0,VALID,93.482,VALID,-0.0339617,VALID,16.1661,VALID,165,VALID,0,
2000-08-17, 03:27:01,VALID,916.955,VALID,0,VALID,93.7579,VALID,0,VALID,16.1489,VALID,165,VALID,0,
2000-08-17, 03:28:01,VALID,916.951,VALID,0,VALID,94.0339,VALID,-0.0169808,VALID,16.1043,VALID,165,VALID,0,
2000-08-17, 03:29:01,VALID,916.926,VALID,0,VALID,94.1598,VALID,-0.0339617,VALID,16.0527,VALID,165,VALID,0,
2000-08-17, 03:30:01,VALID,916.918,VALID,0,VALID,94.2513,VALID,-0.0169808,VALID,16.0075,VALID,165,VALID,0,
2000-08-17, 03:31:01,VALID,916.899,VALID,0,VALID,94.3658,VALID,-0.0339617,VALID,15.9393,VALID,156,VALID,0,
2000-08-17, 03:32:01,VALID,916.875,VALID,0,VALID,95.1147,VALID,-0.0339617,VALID,15.9006,VALID,150,VALID,0,
2000-08-17, 03:33:01,VALID,916.857,VALID,0,VALID,96.5021,VALID,-0.0339617,VALID,15.9817,VALID,215,VALID,0,
2000-08-17, 03:34:00,VALID,916.83,VALID,0,VALID,97.466,VALID,-0.0339617,VALID,16.094,VALID,327,VALID,0,
2000-08-17, 03:35:00,VALID,916.81,VALID,0,VALID,98.0229,VALID,-0.0169808,VALID,16.2272,VALID,1,VALID,0.0144231,
2000-08-17, 03:36:00,VALID,916.775,VALID,0,VALID,98.3116,VALID,0,VALID,16.3174,VALID,9,VALID,0.382813,
2000-08-17, 03:37:00,VALID,916.742,VALID,0,VALID,97.2142,VALID,0,VALID,16.1009,VALID,339,VALID,0.247997,
2000-08-17, 03:38:00,VALID,916.718,VALID,0,VALID,97.9911,VALID,-0.0169808,VALID,16.1818,VALID,320,VALID,0.329883,
2000-08-17, 03:39:00,VALID,916.705,VALID,0,VALID,98.6485,VALID,-0.0509425,VALID,16.3204,VALID,310,VALID,0.487542,
2000-08-17, 03:40:00,VALID,916.7,VALID,0,VALID,98.9499,VALID,-0.0509425,VALID,16.411,VALID,307,VALID,0.199023,
2000-08-17, 03:41:00,VALID,916.702,VALID,0,VALID,99.0097,VALID,-0.0849042,VALID,16.4601,VALID,311,VALID,0.0847356,
2000-08-17, 03:42:00,VALID,916.701,VALID,0,VALID,99.0364,VALID,-0.0509425,VALID,16.4597,VALID,322,VALID,0.143503,
2000-08-17, 03:43:00,VALID,916.719,VALID,0,VALID,98.8431,VALID,-0.0849042,VALID,16.3368,VALID,321,VALID,0,
2000-08-17, 03:44:00,VALID,916.719,VALID,0,VALID,98.7782,VALID,-0.0509425,VALID,16.2686,VALID,321,VALID,0,
2000-08-17, 03:45:00,VALID,916.732,VALID,0,VALID,98.2798,VALID,-0.0509425,VALID,16.0983,VALID,321,VALID,0,